Starlink 6365

operational
NORAD ID: 57237 Int'l Des: 2023-094 Owner: SPXS Country: US Constellation: starlink
LEOCIRCULAR

Starlink 6365について

説明を読み込み中...

リアルタイム位置

3D地球を読み込み中...

次回通過

高度履歴

Altitude vs Time

uPlot chart will show altitude changes over time

軌道要素

1 57237U 23094V 25351.32350522 .00000680 00000-0 65391-4 0 9992
2 57237 43.0013 117.5610 0001422 262.4619 97.6062 15.02532097134739
Epoch: Dec 17, 2025 • Age: 10 hours

現在のステータス

高度 559.4 km
速度 7.58 km/s
衛星直下点 -3.78°S, 125.08°E
打ち上げ日 Jul 7, 2023
運用期間 2.4 years
タイプ internet

技術仕様

分類 Payload
質量 305.00 kg
乾燥質量 290.00 kg
総質量 305.00 kg
長さ 0.20 m
直径 2.80 m
スパン 9.00 m
形状 Box + pan
製造者 SPXS
バスタイプ Starlink
フェーズステータス In Orbit
所有者/国 SPXS/US

大規模コンステレーション

Loading constellations...